TimeCDT,TemperatureF,Dew PointF,Humidity,Sea Level PressureIn,VisibilityMPH,Wind Direction,Wind SpeedMPH,Gust SpeedMPH,PrecipitationIn,Events,Conditions,WindDirDegrees,DateUTC
12:53 AM,57.9,51.1,78,29.81,10.0,West,5.8,-,N/A,,Clear,280,2013-09-21 05:53:00
1:53 AM,55.9,52.0,87,29.82,10.0,West,5.8,-,N/A,,Scattered Clouds,280,2013-09-21 06:53:00
2:32 AM,57.2,51.8,82,29.81,10.0,WNW,4.6,-,N/A,,Mostly Cloudy,290,2013-09-21 07:32:00
2:53 AM,57.9,53.1,84,29.80,10.0,West,5.8,-,N/A,,Overcast,280,2013-09-21 07:53:00
3:01 AM,57.2,53.6,88,29.81,10.0,West,4.6,-,N/A,,Overcast,270,2013-09-21 08:01:00
3:53 AM,57.0,53.1,87,29.79,10.0,West,4.6,-,N/A,,Overcast,280,2013-09-21 08:53:00
4:53 AM,54.0,52.0,93,29.79,10.0,West,4.6,-,N/A,,Partly Cloudy,280,2013-09-21 09:53:00
5:53 AM,53.1,51.1,93,29.80,10.0,West,4.6,-,N/A,,Scattered Clouds,270,2013-09-21 10:53:00
6:53 AM,55.0,52.0,89,29.82,10.0,NW,4.6,-,N/A,,Clear,310,2013-09-21 11:53:00
7:53 AM,61.0,52.0,72,29.83,10.0,NW,9.2,-,N/A,,Clear,310,2013-09-21 12:53:00
8:53 AM,62.1,50.0,65,29.84,10.0,NNW,9.2,16.1,N/A,,Partly Cloudy,330,2013-09-21 13:53:00
9:53 AM,63.0,51.1,65,29.85,10.0,NNW,12.7,20.7,N/A,,Scattered Clouds,330,2013-09-21 14:53:00
10:53 AM,64.9,51.1,61,29.86,10.0,North,9.2,23.0,N/A,,Scattered Clouds,350,2013-09-21 15:53:00
11:53 AM,64.9,46.9,52,29.88,10.0,NW,11.5,19.6,N/A,,Clear,310,2013-09-21 16:53:00
12:53 PM,64.9,46.9,52,29.88,10.0,North,9.2,17.3,N/A,,Scattered Clouds,360,2013-09-21 17:53:00
1:53 PM,64.9,45.0,48,29.88,10.0,North,9.2,21.9,N/A,,Partly Cloudy,360,2013-09-21 18:53:00
2:53 PM,64.9,46.9,52,29.88,10.0,Variable,6.9,16.1,N/A,,Clear,0,2013-09-21 19:53:00
3:53 PM,64.9,46.9,52,29.88,10.0,NW,9.2,-,N/A,,Clear,320,2013-09-21 20:53:00
4:53 PM,63.0,46.9,56,29.88,10.0,NNW,6.9,-,N/A,,Partly Cloudy,340,2013-09-21 21:53:00
5:53 PM,61.0,46.9,60,29.89,10.0,North,8.1,-,N/A,,Scattered Clouds,360,2013-09-21 22:53:00
6:53 PM,57.9,48.0,70,29.91,10.0,Calm,Calm,-,N/A,,Mostly Cloudy,0,2013-09-21 23:53:00
7:53 PM,55.9,46.9,72,29.91,10.0,North,3.5,-,N/A,,Partly Cloudy,360,2013-09-22 00:53:00
8:53 PM,55.9,46.9,72,29.91,10.0,Calm,Calm,-,N/A,,Clear,0,2013-09-22 01:53:00
9:53 PM,53.1,46.0,77,29.93,10.0,Calm,Calm,-,N/A,,Clear,0,2013-09-22 02:53:00
10:53 PM,53.1,46.0,77,29.93,10.0,Calm,Calm,-,N/A,,Clear,0,2013-09-22 03:53:00
11:53 PM,50.0,46.0,86,29.94,10.0,West,4.6,-,N/A,,Clear,270,2013-09-22 04:53:00